Regional Weather Roundup
Issued by NWS Kansas City/Pleasant Hill, MO

Home | Current Version | Previous Version | Graphics & Text | Print | Product List | Glossary Off
Versions: 1 2 3 4 5 6 7 8 9 10 11 12 13 14 15 16 17 18 19 20 21 22 23 24 25 26 27 28 29 30 31 32 33 34 35 36 37 38 39 40 41 42 43 44 45 46 47 48 49 50

000
ASUS43 KEAX 271711
RWREAX

WEATHER ROUNDUP FOR EASTERN KANSAS AND NORTHWEST MISSOURI
NATIONAL WEATHER SERVICE KANSAS CITY/PLEASANT HILL MO
1100 AM CST THU NOV 27 2014

KSZ040-057-103>105-MOZ028-029-037-043-271800-
...KANSAS CITY METROPOLITAN AREA...

CITY           SKY/WX    TMP DP  RH WIND       PRES   REMARKS
K.C. INTL      PTSUNNY   27  20  75 W5        30.53S WCI  22
K.C. DOWNTOWN  CLOUDY    30  20  66 SW5       30.54F WCI  25
LEES SUMMIT    CLOUDY    29  20  69 CALM      30.53S
OLATHE - IXD   MOSUNNY   29  21  72 CALM      30.54R
OLATHE - OJC   CLOUDY    29  20  69 CALM      30.52S
LAWRENCE       MOSUNNY   29  20  69 CALM      30.55F HAZE

$$

MOZ001>008-011>017-020>025-030>033-038>040-044>046-053-054-271800-
...NORTHERN AND CENTRAL MISSOURI...

CITY           SKY/WX    TMP DP  RH WIND       PRES   REMARKS
ST. JOSEPH     CLOUDY    24  16  71 N6        30.55F WCI  17
MOSBY          CLOUDY    28  19  69 NW5       30.55R WCI  23
WARRENSBURG    CLOUDY    30  21  69 CALM      30.54F
WHITEMAN AFB   PTSUNNY   29  21  70 NW3       30.53S
CLINTON        CLOUDY    32  27  80 CALM      30.55S
SEDALIA        CLOUDY    30  22  72 NW6       30.53F WCI  24
WARSAW         NOT AVBL
CHILLICOTHE      N/A     27  17  66 NW6       30.54F WCI  20
MOBERLY        MOSUNNY   30  21  69 W9        30.52R WCI  22
KIRKSVILLE     MOSUNNY   24  18  77 NW8       30.50F WCI  15

$$

MOZ041-047>049-056>058-063>065-088>090-097-271800-
...EASTERN AND SOUTHERN MISSOURI...

CITY           SKY/WX    TMP DP  RH WIND       PRES   REMARKS
ST. LOUIS INTL CLOUDY    32  24  72 NW10      30.48F WCI  24
SPIRIT OF STL  CLOUDY    32  23  69 NW10      30.49S WCI  24
COLUMBIA       PTSUNNY   32  23  69 W13       30.51S WCI  22
JEFFERSON CITY PTSUNNY   34  23  64 NW10      30.54R WCI  26
ROLLA          CLOUDY    29  24  82 W10       30.48S WCI  20
LEBANON        PTSUNNY   32  25  74 NW3       30.49F
OSAGE BEACH    CLOUDY    30  21  69 N5        30.53R WCI  25
SPRINGFIELD    MOSUNNY   35  24  64 CALM      30.50R
BRANSON        MOSUNNY   39  25  56 NW5       30.52R
NEVADA         MOSUNNY   32  23  69 N5        30.55F WCI  27
JOPLIN         SUNNY     34  24  67 CALM      30.54F
WEST PLAINS    PTSUNNY   35  25  66 N5        30.49S WCI  31

$$

IAZ060-094-KSZ022-034>040-054-083-096-NEZ052-066-093-271800-
...KANSAS...SOUTHEAST NEBRASKA AND IOWA...

CITY           SKY/WX    TMP DP  RH WIND       PRES   REMARKS
TOPEKA         SUNNY     32  21  64 NE3       30.55S
MANHATTAN      SUNNY     27  20  75 VRB3      30.53F
EMPORIA        SUNNY     30  21  69 CALM      30.52R
CHANUTE        SUNNY     32  23  69 CALM      30.54F
WICHITA        MOSUNNY   36  20  52 SE10      30.50F WCI  28
OMAHA          CLOUDY    17   2  51 SE3       30.55F
LINCOLN        MOSUNNY   23  11  60 S7        30.51F WCI  15
FALLS CITY     CLOUDY    24   9  52 NE5       30.52F WCI  18
LAMONI         SUNNY     18   9  68 NW7       30.52S WCI   9
DES MOINES     MOSUNNY    8  -3  61 NW7       30.55S WCI  -3

$$




USA.gov is the U.S. government's official web portal to all federal, state and local government web resources and services.